• MPC Preparation (Info)

  • MPEC 2016-Q22 : 2016 QY1

    The following Minor Planet Electronic Circular may be linked-to from your own Web pages, but must not otherwise be redistributed electronically.

    A form allowing access to any MPEC is at the bottom of this page.


    Read MPEC 2016-Q21 Read MPEC 2016-Q23


    M.P.E.C. 2016-Q22                                Issued 2016 Aug. 27, 17:01 UT
    
         The Minor Planet Electronic Circulars contain information on unusual
             minor planets and routine data on comets.  They are published
        on behalf of Division F of the International Astronomical Union by the
              Minor Planet Center, Smithsonian Astrophysical Observatory,
                              Cambridge, MA 02138, U.S.A.
    
                 Prepared using the Tamkin Foundation Computer Network
    
                                  MPC@CFA.HARVARD.EDU
                URL https://www.minorplanetcenter.net/    ISSN 1523-6714
    
                                       2016 QY1
    
    Observations:
         K16Q01Y* C2016 08 26.33682 22 50 36.51 -05 08 34.8          19.1 VqEQ022G96
         K16Q01Y  C2016 08 26.33963 22 50 36.68 -05 08 38.6          19.2 VqEQ022G96
         K16Q01Y  C2016 08 26.34249 22 50 36.85 -05 08 42.5          19.2 VqEQ022G96
         K16Q01Y  C2016 08 26.34528 22 50 37.00 -05 08 47.0          19.7 VqEQ022G96
         K16Q01Y  C2016 08 26.37724 22 50 38.92 -05 09 33.4          19.0 VqEQ022G96
         K16Q01Y  C2016 08 26.37765 22 50 38.95 -05 09 33.7          19.1 VqEQ022G96
         K16Q01Y  C2016 08 26.37806 22 50 38.98 -05 09 34.4          18.9 VqEQ022G96
         K16Q01Y  C2016 08 26.37847 22 50 38.99 -05 09 34.7          19.1 VqEQ022G96
         K16Q01Y KC2016 08 26.71991922 51 05.88 -05 16 26.9          19.5 RqEQ022Q64
         K16Q01Y KC2016 08 26.72386622 51 06.12 -05 16 32.4          19.3 RqEQ022Q64
         K16Q01Y KC2016 08 26.72649722 51 06.28 -05 16 35.9          19.0 RqEQ022Q64
         K16Q01Y KC2016 08 26.85948 22 51 21.59 -05 21 09.8          19.6 V EQ022L04
         K16Q01Y KC2016 08 26.87152 22 51 22.35 -05 21 25.8          19.4 V EQ022L04
         K16Q01Y KC2016 08 26.87673 22 51 22.65 -05 21 33.2          19.4 V EQ022L04
         K16Q01Y  C2016 08 26.93233 22 51 26.44 -05 22 51.8                qEQ022246
         K16Q01Y  C2016 08 26.93372 22 51 26.52 -05 22 53.7                qEQ022246
         K16Q01Y  C2016 08 26.93394 22 51 26.58 -05 22 53.3                qEQ022246
         K16Q01Y  C2016 08 26.93461 22 51 26.60 -05 22 54.9                qEQ022246
         K16Q01Y  C2016 08 26.93484 22 51 26.64 -05 22 55.5                qEQ022246
         K16Q01Y KC2016 08 26.93567 22 51 26.62 -05 22 57.5          19.2 VSEQ022C43
         K16Q01Y KC2016 08 26.94166 22 51 27.84 -05 22 57.8          18.2 RtEQ022B49
         K16Q01Y KC2016 08 26.94365 22 51 27.97 -05 23 00.4          18.2 RtEQ022B49
         K16Q01Y KC2016 08 26.94388 22 51 27.03 -05 23 09.4          19.5 VSEQ022C43
         K16Q01Y KC2016 08 26.94606 22 51 28.10 -05 23 03.7          18.5 RtEQ022B49
         K16Q01Y KC2016 08 26.95265 22 51 27.73 -05 23 17.4                tEQ022595
         K16Q01Y KC2016 08 26.96618 22 51 28.50 -05 23 35.7                tEQ022595
         K16Q01Y KC2016 08 26.97971 22 51 29.24 -05 23 54.5          19.7 VtEQ022595
         K16Q01Y KC2016 08 27.01814 22 51 31.75 -05 24 46.0          19.4 RqEQ022204
         K16Q01Y KC2016 08 27.02488 22 51 32.00 -05 24 54.6                qEQ022160
         K16Q01Y KC2016 08 27.02526 22 51 32.15 -05 24 55.8                qEQ022204
         K16Q01Y KC2016 08 27.02766 22 51 32.21 -05 24 58.0          19.3 RqEQ022160
         K16Q01Y KC2016 08 27.03041 22 51 32.37 -05 25 01.4          19.7 RqEQ022160
         K16Q01Y KC2016 08 27.03227 22 51 32.55 -05 25 05.3                qEQ022204
         K16Q01Y KC2016 08 27.06655 22 51 36.06 -05 25 36.1          19.3 RqEQ022J22
         K16Q01Y KC2016 08 27.06888 22 51 36.19 -05 25 38.9          19.5 RqEQ022J22
         K16Q01Y KC2016 08 27.07121 22 51 36.29 -05 25 43.6          19.4 RqEQ022J22
         K16Q01Y KC2016 08 27.46873 22 52 03.16 -05 34 27.5          19.5 RoEQ022291
         K16Q01Y KC2016 08 27.47145 22 52 03.31 -05 34 30.9          19.5 RoEQ022291
         K16Q01Y KC2016 08 27.47418 22 52 03.48 -05 34 34.5          19.5 RoEQ022291
         K16Q01Y KC2016 08 27.62697 22 52 16.99 -05 36 39.0          20.4 VqEQ022E23
         K16Q01Y KC2016 08 27.64302 22 52 17.78 -05 36 59.4          19.9 VqEQ022E23
         K16Q01Y KC2016 08 27.65691 22 52 18.46 -05 37 15.9          19.9 VqEQ022E23
         K16Q01Y KC2016 08 27.67080 22 52 19.01 -05 37 33.3          19.8 VqEQ022E23
    
    Observer details:
    160 Castelmartini.  Observers M. Jaeger, E. Prosperi, S. Prosperi, W. Vollmann.
        Measurer E. Prosperi.  0.35-m f/10 Schmidt-Cassegrain + CCD.
    204 Schiaparelli Observatory.  Observer L. Buzzi.  0.60-m f/4.64 reflector
        + CCD.
    246 Klet Observatory-KLENOT.  Observers M. Tichy, J. Ticha.  Measurer M. Tichy.
        1.06-m KLENOT Telescope + CCD.
    291 LPL/Spacewatch II.  Observer R. A. Mastaler.  1.8-m f/2.7 reflector + CCD.
    595 Farra d'Isonzo.  Observer E. Pettarin.  0.61-m f/4.0 reflector + CCD.
    B49 Paus Observatory, Sabadell.  Observer J. Camarasa.  0.30-m f/4 Newtonian
        reflector + CCD.
    C43 Hoyerswerda.  Observer P. Lindner.  0.30-m f/6.3 Schmidt-Cassegrain + CCD.
    E23 Arcadia.  Observer A. Hidas.  0.35-m f/1.9 reflector + CCD.
    G96 Mt. Lemmon Survey.  Observer A. R. Gibbs.  Measurers E. J. Christensen,
        D. C. Fuls, A. R. Gibbs, A. D. Grauer, J. A. Johnson, R. A. Kowalski,
        S. M. Larson, G. J. Leonard, R. G. Matheny, R. L. Seaman, F. C. Shelly.
        1.5-m reflector + 10K CCD.
    J22 Tacande Observatory, La Palma.  Observer K. Hills.  0.5-m f/2.9 astrograph
        + CCD.
    L04 ROASTERR-1 Observatory, Cluj-Napoca.  Observer L. Hudin.  0.3-m f/5.0
        reflector + CCD.
    Q64 Siding Spring-LCOGT B.  Observers T. Lister, S. Greenstreet, E. Gomez.
        Measurer T. Lister.  1.0-m f/8 Ritchey-Chretien + CCD.
    
    Orbital elements:
    2016 QY1                                                 Earth MOID = 0.0174 AU
    Epoch 2016 July 31.0 TT = JDT 2457600.5                 MPC
    M   6.52944              (2000.0)            P               Q
    n   0.28504133     Peri.  114.11008     +0.06114074     +0.99800713
    a   2.2866384      Node   159.37709     -0.93110190     +0.06266138
    e   0.6011601      Incl.    2.53970     -0.35959848     +0.00743818
    P   3.46           H   23.2           G   0.15           U   7
    Residuals in seconds of arc
    160826 G96  0.1-  0.4-    160826 246  0.3-  0.2-    160827 160  0.7+  0.5-
    160826 G96  0.1-  0.1-    160826 246  0.4+  0.5+    160827 160  0.8+  0.2-
    160826 G96  0.1-  0.2+    160826 246  0.2+  0.2-    160827 204  0.3-  0.0
    160826 G96  0.3-  0.2-    160826 246  0.5+  0.5-    160827 J22  0.0   0.1+
    160826 G96  0.0   0.2-    160826 C43  0.2+  0.5+    160827 J22  0.2+  0.4+
    160826 G96  0.1+  0.1+    160826 B49  0.2+  0.5+    160827 J22  0.1-  1.1-
    160826 G96  0.1+  0.0     160826 B49  0.4+  0.6+    160827 291  0.1-  0.1+
    160826 G96  0.1-  0.3+    160826 C43  1.1-  0.1-    160827 291  0.2-  0.2+
    160826 Q64  0.0   0.0     160826 B49  0.3+  0.6+    160827 291  0.0   0.0
    160826 Q64  0.0   0.1-    160826 595  0.1-  0.2-    160827 E23  0.3+  0.5-
    160826 Q64  0.1-  0.1+    160826 595  0.2-  0.0     160827 E23  0.6+  0.6-
    160826 L04  0.3-  0.4-    160826 595  0.8-  0.3-    160827 E23  0.6+  0.4+
    160826 L04  0.1-  0.4+    160827 204  0.2-  0.3+    160827 E23  1.4-  0.3+
    160826 L04  0.3-  0.3+    160827 160  0.1-  0.9-
    160826 246  0.2-  0.2-    160827 204  0.3-  0.1+
    
    Ephemeris:
    2016 QY1                 a,e,i = 2.29, 0.60, 3                   q = 0.9120
    Date    TT    R. A. (2000) Decl.     Delta      r     Elong.  Phase     V
    2016 07 28    11 50 03.5 +18 19 10   0.09592 0.9529    47.2   128.5    23.6
    ...
    2016 08 12    20 30 40.4 +25 50 30   0.02268 1.0300   136.9    42.2    16.7
    ...
    2016 08 20    22 35 08.8 -01 01 45   0.07307 1.0826   165.3    13.8    18.5
    ...
    2016 08 26    22 50 07.2 -04 59 24   0.1167  1.1259   170.7     8.3    19.4
    2016 08 27    22 51 30.7 -05 23 26   0.1242  1.1334   171.6     7.5    19.5
    2016 08 28    22 52 43.6 -05 44 53   0.1318  1.1409   172.5     6.7    19.6
    ...
    2016 09 03    22 57 33.7 -07 16 34   0.1788  1.1874   177.8     1.9    20.1
    ...
    2016 09 11    23 00 54.6 -08 21 35   0.2463  1.2520   174.4     4.5    21.0
    ...
    2016 09 26    23 05 33.7 -08 58 14   0.3913  1.3780   160.7    13.9    22.7
    
    A. U. Tomatic                (C) Copyright 2016 MPC           M.P.E.C. 2016-Q22
    

    Read MPEC 2016-Q21 Read MPEC 2016-Q23


    MPEC number:

    Enter an MPEC number in one of the following forms:

    • 1997-B01 (the full form)
    • J97B01 (the packed version of the full form)
    • B01 (the abbreviated form)